TimeEST,TemperatureF,Dew PointF,Humidity,Sea Level PressureIn,VisibilityMPH,Wind Direction,Wind SpeedMPH,Gust SpeedMPH,PrecipitationIn,Events,Conditions,WindDirDegrees,DateUTC
12:15 AM,33.8,28.4,81,29.90,9.0,ESE,16.1,19.6,0.01,,Overcast,110,2013-02-22 05:15:00
12:35 AM,33.8,28.4,81,29.88,10.0,ESE,15.0,20.7,0.01,,Overcast,110,2013-02-22 05:35:00
1:15 AM,33.8,30.2,87,29.85,10.0,ESE,18.4,23.0,N/A,,Overcast,110,2013-02-22 06:15:00
2:15 AM,33.8,30.2,87,29.86,8.0,SE,10.4,-,N/A,,Overcast,130,2013-02-22 07:15:00
2:35 AM,33.8,30.2,87,29.85,8.0,SE,9.2,-,N/A,,Overcast,130,2013-02-22 07:35:00
2:55 AM,33.8,32.0,93,29.85,6.0,SE,9.2,-,N/A,,Overcast,130,2013-02-22 07:55:00
3:15 AM,33.8,32.0,93,29.85,5.0,SSE,8.1,-,N/A,,Overcast,160,2013-02-22 08:15:00
3:35 AM,35.6,33.8,93,29.85,6.0,SE,10.4,17.3,N/A,,Overcast,140,2013-02-22 08:35:00
3:55 AM,35.6,32.0,87,29.85,5.0,SE,8.1,-,N/A,,Overcast,140,2013-02-22 08:55:00
4:15 AM,35.6,32.0,87,29.85,5.0,SSE,5.8,-,N/A,,Overcast,150,2013-02-22 09:15:00
4:35 AM,35.6,33.8,93,29.84,3.0,SE,8.1,-,N/A,,Overcast,130,2013-02-22 09:35:00
4:55 AM,35.6,33.8,93,29.84,4.0,SE,5.8,-,N/A,,Overcast,140,2013-02-22 09:55:00
5:15 AM,35.6,33.8,93,29.84,3.0,SE,6.9,-,N/A,,Overcast,140,2013-02-22 10:15:00
5:35 AM,35.6,33.8,93,29.84,3.0,SSE,6.9,-,N/A,,Overcast,160,2013-02-22 10:35:00
5:55 AM,37.4,33.8,87,29.85,3.0,South,6.9,-,N/A,,Overcast,190,2013-02-22 10:55:00
6:15 AM,37.4,35.6,93,29.86,3.0,South,6.9,-,N/A,,Overcast,170,2013-02-22 11:15:00
6:35 AM,37.4,35.6,93,29.87,1.8,South,10.4,-,N/A,,Overcast,190,2013-02-22 11:35:00
6:55 AM,37.4,35.6,93,29.89,1.8,SSW,11.5,-,N/A,,Overcast,210,2013-02-22 11:55:00
7:15 AM,37.4,35.6,93,29.89,2.0,SW,13.8,-,N/A,,Overcast,220,2013-02-22 12:15:00
7:35 AM,37.4,35.6,93,29.90,4.0,SW,11.5,-,N/A,,Overcast,220,2013-02-22 12:35:00
7:56 AM,37.4,35.6,93,29.91,4.0,SW,17.3,20.7,N/A,,Overcast,230,2013-02-22 12:56:00
8:35 AM,37.4,33.8,87,29.93,10.0,SW,15.0,-,N/A,,Overcast,230,2013-02-22 13:35:00
8:55 AM,37.4,33.8,87,29.95,10.0,SW,16.1,-,N/A,,Overcast,220,2013-02-22 13:55:00
9:15 AM,37.4,33.8,87,29.95,10.0,SSW,16.1,-,N/A,,Overcast,210,2013-02-22 14:15:00
9:35 AM,37.4,33.8,87,29.96,10.0,SW,15.0,21.9,N/A,,Overcast,220,2013-02-22 14:35:00
9:55 AM,37.4,33.8,87,29.96,10.0,SW,16.1,-,N/A,,Overcast,220,2013-02-22 14:55:00
10:35 AM,37.4,33.8,87,29.98,10.0,SSW,16.1,-,N/A,,Overcast,210,2013-02-22 15:35:00
10:55 AM,37.4,33.8,87,29.98,10.0,SW,11.5,18.4,N/A,,Overcast,230,2013-02-22 15:55:00
11:15 AM,39.2,33.8,81,29.99,10.0,SW,13.8,-,N/A,,Overcast,220,2013-02-22 16:15:00
11:35 AM,39.2,33.8,81,29.99,10.0,SW,11.5,-,N/A,,Overcast,230,2013-02-22 16:35:00
11:55 AM,39.2,33.8,81,30.00,10.0,SSW,16.1,-,N/A,,Overcast,210,2013-02-22 16:55:00
12:15 PM,39.2,33.8,81,30.00,10.0,SW,17.3,-,N/A,,Overcast,220,2013-02-22 17:15:00
12:35 PM,39.2,33.8,81,30.01,10.0,WSW,12.7,18.4,N/A,,Overcast,240,2013-02-22 17:35:00
12:55 PM,39.2,33.8,81,30.01,10.0,SW,13.8,19.6,N/A,,Overcast,230,2013-02-22 17:55:00
1:15 PM,41.0,33.8,76,30.00,10.0,SW,12.7,20.7,N/A,,Overcast,230,2013-02-22 18:15:00
1:35 PM,41.0,33.8,76,29.99,10.0,SW,12.7,19.6,N/A,,Overcast,220,2013-02-22 18:35:00
2:15 PM,41.0,33.8,76,29.98,10.0,SW,12.7,17.3,N/A,,Overcast,230,2013-02-22 19:15:00
2:35 PM,41.0,33.8,76,29.98,10.0,WSW,12.7,-,N/A,,Overcast,240,2013-02-22 19:35:00
2:55 PM,41.0,33.8,76,29.98,10.0,SW,11.5,-,N/A,,Overcast,220,2013-02-22 19:55:00
3:15 PM,41.0,33.8,76,29.98,10.0,SW,10.4,-,N/A,,Overcast,230,2013-02-22 20:15:00
3:35 PM,42.8,33.8,70,29.98,10.0,SW,10.4,16.1,N/A,,Overcast,220,2013-02-22 20:35:00
3:55 PM,42.8,33.8,70,29.97,10.0,SSW,9.2,-,N/A,,Overcast,210,2013-02-22 20:55:00
4:15 PM,42.8,35.6,76,29.97,10.0,SW,9.2,-,N/A,,Overcast,220,2013-02-22 21:15:00
4:35 PM,42.8,35.6,76,29.97,10.0,WSW,8.1,-,N/A,,Overcast,250,2013-02-22 21:35:00
4:55 PM,42.8,35.6,76,29.97,10.0,West,6.9,-,N/A,,Overcast,260,2013-02-22 21:55:00
5:15 PM,42.8,35.6,76,29.98,10.0,WSW,9.2,-,N/A,,Overcast,240,2013-02-22 22:15:00
5:35 PM,42.8,35.6,76,29.98,10.0,WSW,9.2,-,N/A,,Overcast,250,2013-02-22 22:35:00
5:55 PM,42.8,35.6,76,29.98,10.0,WSW,8.1,-,N/A,,Overcast,250,2013-02-22 22:55:00
6:15 PM,42.8,35.6,76,29.98,10.0,WSW,8.1,-,N/A,,Overcast,250,2013-02-22 23:15:00
6:55 PM,41.0,35.6,81,29.98,10.0,West,5.8,-,N/A,,Overcast,280,2013-02-22 23:55:00
7:15 PM,39.2,33.8,81,29.99,10.0,WNW,5.8,-,N/A,,Overcast,290,2013-02-23 00:15:00
7:35 PM,39.2,33.8,81,29.99,10.0,WNW,6.9,-,N/A,,Overcast,300,2013-02-23 00:35:00
7:55 PM,39.2,33.8,81,30.00,10.0,West,10.4,-,N/A,,Overcast,280,2013-02-23 00:55:00
10:55 PM,35.6,26.6,70,30.05,10.0,WNW,10.4,-,N/A,,Overcast,290,2013-02-23 03:55:00
11:15 PM,35.6,26.6,70,30.06,10.0,WNW,9.2,-,N/A,,Overcast,300,2013-02-23 04:15:00
11:35 PM,33.8,26.6,75,30.05,10.0,WNW,10.4,-,N/A,,Overcast,300,2013-02-23 04:35:00
11:55 PM,33.8,26.6,75,30.05,10.0,WNW,10.4,-,N/A,,Overcast,290,2013-02-23 04:55:00